(362091) = 2009 BP159

Discovered at Kitt Peak on 2009-01-31 by Spacewatch.

Orbit

Orbit type: Main Belt

Note: WebGL enabled browser required.

epoch2023-09-13.0
epoch JD2460200.5
perihelion date2019-07-18.76280
perihelion JD2458683.26280
argument of perihelion (°)2.18915
ascending node (°)340.39842
inclination (°)11.83695
eccentricity0.1833499
perihelion distance (AU)2.1105637
Tisserand w.r.t. Jupiter3.4
ΔV w.r.t. Earth (km/sec)9.8
semimajor axis (AU)2.5844160
mean anomaly (°)359.92639
mean daily motion (°/day)0.23722490
aphelion distance (AU)3.058
period (years)4.15
P-vector [x]0.95390293
P-vector [y]-0.27837335
P-vector [z]-0.11214932
Q-vector [x]0.29211917
Q-vector [y]0.77553754
Q-vector [z]0.55964982
absolute magnitude16.72
phase slope0.15
uncertainty0
referenceMPEC 2024-A141
observations used364
oppositions12
arc length (days)7793
first opposition used2002
last opposition used2023
residual rms (arc-secs)0.69
perturbers coarse indicatorM-v
perturbers precise indicator003Ek
first observation date used2002-07-16.0
last observation date used2023-11-16.0
computer nameMPCLINUX
JD of orbit computation2456819.449443
perihelion JD uncertainty (days)8.8754E-05
argument of perihelion uncertainty (°)2.7382E-05
ascending node uncertainty (°)2.2194E-05
inclination uncertainty (°)6.1394E-06
eccentricity uncertainty 5.3828E-08
perihelion distance uncertainty (AU)1.3793E-07
Minimum Orbit Intersection Distances (in AU)
for orbit epoch: 2460200.5, reference: E2024-AE1
Mercury1.7182
Venus1.3851
Earth1.1019
Mars0.73079
Jupiter2.33495
Saturn6.21579
Uranus15.3896
Neptune27.3949

Observations

364 total observations over interval: 2002 07 16.30618 – 2023 11 16.257645
These data are available for download (format description).

Date (UT) J2000 RA J2000 Dec Magn Location Ref
2002 07 16.30618 20 15 34.83 -35 36 54.0 20.1   644 – Palomar Mountain/NEAT MPS 426519
2002 07 16.32708 20 15 33.29 -35 36 53.1 19.6   644 – Palomar Mountain/NEAT MPS 426519
2002 07 16.34802 20 15 31.83 -35 36 52.5 19.9   644 – Palomar Mountain/NEAT MPS 426519
2005 03 04.24386 11 43 50.03 -02 18 03.5 21.4 V 691 – Steward Observatory, Kitt Peak-Spacewatch MPS 420372
2005 03 04.27506 11 43 48.31 -02 18 00.1 21.2 V 691 – Steward Observatory, Kitt Peak-Spacewatch MPS 420372
2005 03 04.30093 11 43 46.87 -02 17 56.4 21.6 V 691 – Steward Observatory, Kitt Peak-Spacewatch MPS 420372
2009 01 31.47613 11 23 44.55 +04 36 34.7 21.2 V 691 – Steward Observatory, Kitt Peak-Spacewatch MPS 276727
2009 01 31.49419 11 23 43.92 +04 36 35.7 21.7 V 691 – Steward Observatory, Kitt Peak-Spacewatch MPS 276727
2009 01 31.51225 11 23 43.29 +04 36 36.9 21.5 V 691 – Steward Observatory, Kitt Peak-Spacewatch MPS 276727
2009 02 04.47720 11 21 20.16 +04 40 08.4   691 – Steward Observatory, Kitt Peak-Spacewatch MPS 276727
2009 02 04.49529 11 21 19.41 +04 40 09.4   691 – Steward Observatory, Kitt Peak-Spacewatch MPS 276727
2009 02 04.51338 11 21 18.69 +04 40 10.6   691 – Steward Observatory, Kitt Peak-Spacewatch MPS 276727
2009 02 19.36588 11 09 45.46 +05 06 26.1 21.2 V G96 – Mt. Lemmon Survey MPS 349552
2009 02 19.36957 11 09 45.21 +05 06 26.8 21.3 V G96 – Mt. Lemmon Survey MPS 349552
2009 02 19.37328 11 09 45.00 +05 06 27.6 21.0 V G96 – Mt. Lemmon Survey MPS 349552
2009 02 19.37698 11 09 44.82 +05 06 28.2 21.1 V G96 – Mt. Lemmon Survey MPS 349552
2009 03 29.20550 10 35 45.74 +06 36 54.2 21.0 V G96 – Mt. Lemmon Survey MPS 349552
2009 03 29.21295 10 35 45.42 +06 36 54.8 21.2 V G96 – Mt. Lemmon Survey MPS 349552
2009 03 29.22049 10 35 45.09 +06 36 55.8 21.4 V G96 – Mt. Lemmon Survey MPS 349552
2009 03 29.22791 10 35 44.77 +06 36 56.3 20.8 V G96 – Mt. Lemmon Survey MPS 349552
2011 11 07.453132 03 43 34.18 +39 19 28.1   568 – Maunakea MPS 904188
2011 11 07.475984 03 43 32.50 +39 19 29.0   568 – Maunakea MPS 904188
2011 11 08.53244 03 42 17.996 +39 19 54.94 20.0 r F51 – Pan-STARRS 1, Haleakala MPS 420372
2011 11 08.54400 03 42 17.147 +39 19 54.87 20.2 r F51 – Pan-STARRS 1, Haleakala MPS 420372
2011 11 08.55784 03 42 16.140 +39 19 55.02 20.2 i F51 – Pan-STARRS 1, Haleakala MPS 420372
2011 11 08.57120 03 42 15.148 +39 19 54.92 20.1 i F51 – Pan-STARRS 1, Haleakala MPS 420372
2011 11 18.20427 03 30 30.09 +39 08 46.1 19.7 V G96 – Mt. Lemmon Survey MPS 420372
2011 11 18.21060 03 30 29.62 +39 08 45.4 19.6 V G96 – Mt. Lemmon Survey MPS 420372
2011 11 18.22382 03 30 28.62 +39 08 43.3 19.7 V G96 – Mt. Lemmon Survey MPS 420372
2011 11 18.23014 03 30 28.15 +39 08 42.2 19.7 V G96 – Mt. Lemmon Survey MPS 420372
2013 02 06.22252 10 35 37.52 +12 18 28.5 21.1 V 691 – Steward Observatory, Kitt Peak-Spacewatch MPS 453788
2013 02 06.24026 10 35 36.58 +12 18 31.1 21.1 V 691 – Steward Observatory, Kitt Peak-Spacewatch MPS 453788
2013 02 06.25801 10 35 35.60 +12 18 33.6 21.5 V 691 – Steward Observatory, Kitt Peak-Spacewatch MPS 453788
2013 02 09.39692 10 32 45.693 +12 26 22.02 20.9 w F51 – Pan-STARRS 1, Haleakala MPS 453788
2013 02 09.41207 10 32 44.834 +12 26 24.56 20.9 w F51 – Pan-STARRS 1, Haleakala MPS 453788
2013 02 09.42723 10 32 43.981 +12 26 26.87 20.9 w F51 – Pan-STARRS 1, Haleakala MPS 453788
2013 02 16.22359 10 26 14.41 +12 43 45.6 20.7 V 691 – Steward Observatory, Kitt Peak-Spacewatch MPS 456403
2013 02 16.24132 10 26 13.34 +12 43 47.7 20.9 V 691 – Steward Observatory, Kitt Peak-Spacewatch MPS 456403
2013 02 16.25904 10 26 12.24 +12 43 51.0 20.3 V 691 – Steward Observatory, Kitt Peak-Spacewatch MPS 456403
2013 03 06.33607 10 08 32.377 +13 23 27.03 21.2 g F51 – Pan-STARRS 1, Haleakala MPS 457438
2013 03 06.34768 10 08 31.723 +13 23 28.01 21.1 g F51 – Pan-STARRS 1, Haleakala MPS 457438
2013 04 01.18713 09 50 31.12 +13 34 34.8 21.0 V G96 – Mt. Lemmon Survey MPS 461685
2013 04 01.19547 09 50 30.94 +13 34 34.7 21.2 V G96 – Mt. Lemmon Survey MPS 461685
2013 04 01.20382 09 50 30.69 +13 34 34.2 22.1 V G96 – Mt. Lemmon Survey MPS 461685
2013 04 01.21226 09 50 30.48 +13 34 33.2 22.1 V G96 – Mt. Lemmon Survey MPS 461685
2014 05 19.37889 14 53 08.463 -35 36 50.50 20.3 i F51 – Pan-STARRS 1, Haleakala MPS 516394
2014 05 19.38950 14 53 07.727 -35 36 48.35 19.9 i F51 – Pan-STARRS 1, Haleakala MPS 516394
2014 05 19.40010 14 53 07.005 -35 36 46.01 20.1 i F51 – Pan-STARRS 1, Haleakala MPS 516394
2014 05 19.41071 14 53 06.247 -35 36 43.99 20.1 i F51 – Pan-STARRS 1, Haleakala MPS 516394
2015 10 14.38243 02 05 58.99 +29 56 48.6 19.9 r G45 – Space Surveillance Telescope, Atom Site MPS 635431
2015 10 14.38833 02 05 58.63 +29 56 48.6 20.1 r G45 – Space Surveillance Telescope, Atom Site MPS 635431
2015 10 14.39419 02 05 58.23 +29 56 49.7 20.1 r G45 – Space Surveillance Telescope, Atom Site MPS 635431
2015 10 14.39928 02 05 57.90 +29 56 49.7 19.6 r G45 – Space Surveillance Telescope, Atom Site MPS 635431
2015 10 23.28070 01 56 06.15 +30 00 06.4 19.2 V 703 – Catalina Sky Survey MPS 641515
2015 10 23.28876 01 56 05.64 +30 00 06.9 19.6 V 703 – Catalina Sky Survey MPS 641515
2015 10 23.29278 01 56 05.31 +30 00 07.1 19.7 V 703 – Catalina Sky Survey MPS 641515
2015 11 01.21453 01 46 08.60 +29 42 10.4 19.1 V 703 – Catalina Sky Survey MPS 645091
2015 11 01.21967 01 46 08.29 +29 42 09.3 19.6 V 703 – Catalina Sky Survey MPS 645091
2015 11 01.22479 01 46 07.86 +29 42 07.7 19.8 V 703 – Catalina Sky Survey MPS 645091
2015 11 01.22992 01 46 07.50 +29 42 08.2 19.1 V 703 – Catalina Sky Survey MPS 645091
2015 11 02.70441 01 44 33.29 +29 37 23.1 19.7 R D29 – Purple Mountain Observatory, XuYi Station MPS 645091
2015 11 02.72028 01 44 32.26 +29 37 19.2 19.3 R D29 – Purple Mountain Observatory, XuYi Station MPS 645091
2015 11 02.73616 01 44 31.21 +29 37 16.4 19.3 R D29 – Purple Mountain Observatory, XuYi Station MPS 645091
2015 11 03.49494 01 43 43.660 +29 34 41.30 19.5 r F51 – Pan-STARRS 1, Haleakala MPS 645091
2015 11 03.50528 01 43 42.987 +29 34 38.90 19.3 r F51 – Pan-STARRS 1, Haleakala MPS 645091
2015 11 09.24686 01 38 05.74 +29 11 38.5 19.5 V 703 – Catalina Sky Survey MPS 650290
2015 11 09.25352 01 38 05.33 +29 11 37.7 19.1 V 703 – Catalina Sky Survey MPS 650290
2015 11 09.26017 01 38 04.93 +29 11 35.1   703 – Catalina Sky Survey MPS 650290
2015 11 09.26681 01 38 04.48 +29 11 32.7   703 – Catalina Sky Survey MPS 650290
2015 12 06.20845 01 24 53.410 +26 58 52.06 20.3 w F51 – Pan-STARRS 1, Haleakala MPS 659553
2015 12 06.22105 01 24 53.359 +26 58 48.92 20.3 w F51 – Pan-STARRS 1, Haleakala MPS 659553
2017 01 28.34442 09 55 24.57 +19 28 48.9 20.7 V G96 – Mt. Lemmon Survey MPS 765746
2017 01 28.34936 09 55 24.25 +19 28 49.9 21.4 V G96 – Mt. Lemmon Survey MPS 765746
2017 01 28.35459 09 55 23.94 +19 28 50.9 20.9 V G96 – Mt. Lemmon Survey MPS 765746
2017 01 28.35966 09 55 23.71 +19 28 52.2 21.3 V G96 – Mt. Lemmon Survey MPS 765746
2017 01 28.38733 09 55 22.259 +19 28 56.67 20.9 w F51 – Pan-STARRS 1, Haleakala MPS 765746
2017 01 28.39963 09 55 21.550 +19 28 58.47 21.0 w F51 – Pan-STARRS 1, Haleakala MPS 765746
2017 01 28.41181 09 55 20.842 +19 29 00.42 21.0 w F51 – Pan-STARRS 1, Haleakala MPS 765746
2017 01 28.42399 09 55 20.130 +19 29 02.38 20.9 w F51 – Pan-STARRS 1, Haleakala MPS 765746
2017 02 01.39321 09 51 28.58 +19 39 00.5 20.5 V G96 – Mt. Lemmon Survey MPS 765746
2017 02 01.39756 09 51 28.36 +19 39 00.8 20.6 V G96 – Mt. Lemmon Survey MPS 765746
2017 02 01.40196 09 51 28.04 +19 39 01.7 20.5 V G96 – Mt. Lemmon Survey MPS 765746
2017 02 01.40628 09 51 27.81 +19 39 02.5 20.2 V G96 – Mt. Lemmon Survey MPS 765746
2017 02 04.52468 09 48 19.189 +19 46 31.76 20.8 w F51 – Pan-STARRS 1, Haleakala MPS 767156
2017 02 04.53722 09 48 18.408 +19 46 33.47 20.8 w F51 – Pan-STARRS 1, Haleakala MPS 767156
2017 02 04.54972 09 48 17.620 +19 46 35.18 20.8 w F51 – Pan-STARRS 1, Haleakala MPS 767156
2017 02 04.56226 09 48 16.836 +19 46 36.91 20.8 w F51 – Pan-STARRS 1, Haleakala MPS 767156
2017 02 22.28236 09 30 06.194 +20 16 33.35 20.9 w F51 – Pan-STARRS 1, Haleakala MPS 771747
2017 02 22.33249 09 30 03.180 +20 16 36.26 20.9 w F51 – Pan-STARRS 1, Haleakala MPS 771747
2017 02 22.34615 09 30 02.358 +20 16 37.08 20.9 w F51 – Pan-STARRS 1, Haleakala MPS 771747
